"Pseudo-MPEC" for P21Dfvr

Created 2023 Jan 25 20:22:21 UT using Find_Orb

Click here for an explanation of pseudo-MPECs

 
 Astrometry: 
     P21Dfvr* C2023 01 25X2'y`4Z2dQEUiFAstrometryNPQ6^`u+Xhp'#v8scp+jIkX]WB4#F52
     P21Dfvr  C2023 01 25RW#Z-.KkHFQZiGblCT?-JJQNo01L,F)^#-s1redacted;oDVj-xYF52
     P21Dfvr  C2023 01 25/:%,nDmsHEG=/XDoXMT64'click!*KWo?T)hereNo.4=-(6/'7'jF52
     P21Dfvr  C2023 01 25JK_(Rmgt?KEQM;p'xxP,2Hmn8#uP^e/%\arU(mtSl%Zau_MFF:n9F52
     P21Dfvr  C2023 01 25.-p^7T#k=(M%!(anW;`\forO2Ea_l-S:GGq8LW)i`1H;m0cJ%#a.F52
     P21Dfvr  C2023 01 25%sTg2tf:u\m\explanationTs98SI?n)WAb[(p`!$Mg$-swi5DKiF52
     P21Dfvr  C2023 01 25=?[4L*SA!\RBD3$nNYsUFQWTJUC_SI)qBd+nI8iJtBFr/Jf])99)F52

Station data:
(F52) Pan-STARRS 2, Haleakala  (N20.707382 W156.255910)  US/Hawaii.
   Observers J. Bulger, T. Dukes, T. Lowe, A. Schultz, M. Willman. Measurers
   K. Chambers, S. Chastel, T. de Boer, L. Denneau, J. Fairlamb, H.
   Flewelling, M. Huber, C.-C. Lin, E. Magnier, Y. Ramanjooloo, R. Wainscoat,
   R. Weryk. 1.8-m Ritchey-Chrétien + CCD.

Orbital elements:  P21Dfvr
   Perihelion 2022 Sep 3.93712 +/- 197 TT = 22:29:27 (JD 2459826.43712)
Epoch 2023 Jan 25.0 TT = JDT 2459969.5   Earth MOID: 0.6152   Ma: 0.0431
M  57.73567755 +/- 50               (J2000 ecliptic)             AutoNEOCP
n   0.40356854 +/- 0.244            Peri.  147.29273 +/- 110
a   1.81352901 +/- 0.73             Node   270.28044 +/- 46
e   0.1273142 +/- 0.279             Incl.   19.00095 +/- 25
P   2.44/892.02d           H 19.53  G  0.15   U 11.8  SR
q 1.58264099 +/- 0.791    Q 2.04441704 +/- 36.6
From 7 observations 2023 Jan. 25 (2.6 hr); mean residual 0".05
Residuals in arcseconds: 
230125 F52  .02-  .02+    230125 F52  .05-  .05+    230125 F52  .03+  .06+    
230125 F52  .01+  .01+    230125 F52  .07-  .05-    
230125 F52  .01+  .03-    230125 F52  .09+  .06-    

Ephemerides (geocentric):
Date (UTC) HH   RA             Dec           delta  r     elong  mag " sig PA
---- --------  ------------   ------------  ------ ------ -----  --- --------
2023 01 25 20  08 23 57.990   -08 09 09.75  .77878 1.7147 152.8 21.0 80.7 169
2023 01 25 21  08 23 54.089   -08 09 33.10  .77884 1.7148 152.8 21.0 88.8 171
2023 01 25 22  08 23 50.189   -08 09 56.41  .77891 1.7149 152.8 21.0 97.0 172
2023 01 25 23  08 23 46.290   -08 10 19.65  .77897 1.7149 152.8 21.0  105 173
2023 01 26 00  08 23 42.392   -08 10 42.84  .77903 1.7150 152.8 21.0  113 173
2023 01 26 01  08 23 38.494   -08 11 05.96  .77909 1.7150 152.8 21.0  122 174
2023 01 26 02  08 23 34.597   -08 11 29.03  .77916 1.7151 152.8 21.0  130 175
2023 01 26 03  08 23 30.701   -08 11 52.05  .77922 1.7152 152.8 21.0  138 175
2023 01 26 04  08 23 26.806   -08 12 15.00  .77929 1.7152 152.8 21.0  146 176
2023 01 26 05  08 23 22.911   -08 12 37.89  .77935 1.7153 152.8 21.0  155 176
2023 01 26 06  08 23 19.018   -08 13 00.73  .77942 1.7154 152.8 21.0  163 177
2023 01 26 07  08 23 15.125   -08 13 23.51  .77948 1.7154 152.8 21.0  171 177
2023 01 26 08  08 23 11.233   -08 13 46.23  .77955 1.7155 152.8 21.0  179 177
2023 01 26 09  08 23 07.342   -08 14 08.90  .77961 1.7156 152.8 21.0  188 178
2023 01 26 10  08 23 03.452   -08 14 31.50  .77968 1.7156 152.8 21.0  196 178
2023 01 26 11  08 22 59.563   -08 14 54.05  .77975 1.7157 152.8 21.0  204 178
2023 01 26 12  08 22 55.675   -08 15 16.54  .77982 1.7158 152.8 21.0  212 179
2023 01 26 13  08 22 51.788   -08 15 38.98  .77988 1.7158 152.8 21.0  221 179
2023 01 26 14  08 22 47.901   -08 16 01.35  .77995 1.7159 152.8 21.0  229 179
2023 01 26 15  08 22 44.016   -08 16 23.67  .78002 1.7160 152.8 21.0  237   0
2023 01 26 16  08 22 40.132   -08 16 45.92  .78009 1.7160 152.8 21.0  245   0
2023 01 26 17  08 22 36.248   -08 17 08.12  .78016 1.7161 152.8 21.0  254   0
2023 01 26 18  08 22 32.366   -08 17 30.27  .78023 1.7162 152.8 21.0  262   1
2023 01 26 19  08 22 28.484   -08 17 52.35  .78030 1.7162 152.8 21.0  270   1
2023 01 26 20  08 22 24.604   -08 18 14.38  .78037 1.7163 152.8 21.0  279   1
2023 01 26 21  08 22 20.724   -08 18 36.35  .78044 1.7163 152.8 21.1  287   2
2023 01 26 22  08 22 16.846   -08 18 58.26  .78051 1.7164 152.8 21.1  296   2
2023 01 26 23  08 22 12.968   -08 19 20.11  .78058 1.7165 152.8 21.1  304   2
2023 01 27 00  08 22 09.092   -08 19 41.91  .78065 1.7165 152.8 21.1  313   3
2023 01 27 01  08 22 05.217   -08 20 03.64  .78073 1.7166 152.8 21.1  321   3
2023 01 27 02  08 22 01.342   -08 20 25.32  .78080 1.7167 152.8 21.1  330   3
2023 01 27 03  08 21 57.469   -08 20 46.95  .78087 1.7167 152.8 21.1  338   4
2023 01 27 04  08 21 53.597   -08 21 08.51  .78095 1.7168 152.8 21.1  347   4
2023 01 27 05  08 21 49.726   -08 21 30.02  .78102 1.7169 152.8 21.1  356   5
2023 01 27 06  08 21 45.857   -08 21 51.46  .78109 1.7169 152.8 21.1  364   5
2023 01 27 07  08 21 41.988   -08 22 12.85  .78117 1.7170 152.8 21.1  373   5
2023 01 27 08  08 21 38.120   -08 22 34.19  .78124 1.7171 152.8 21.1  382   6
2023 01 27 09  08 21 34.254   -08 22 55.46  .78132 1.7171 152.8 21.1  391   6
2023 01 27 10  08 21 30.389   -08 23 16.68  .78140 1.7172 152.8 21.1  400   7
2023 01 27 11  08 21 26.525   -08 23 37.84  .78147 1.7173 152.8 21.1  409   7
2023 01 27 12  08 21 22.662   -08 23 58.94  .78155 1.7173 152.8 21.1  418   8
2023 01 27 13  08 21 18.800   -08 24 19.98  .78162 1.7174 152.8 21.1  428   9
2023 01 27 14  08 21 14.940   -08 24 40.97  .78170 1.7175 152.8 21.1  437   9
2023 01 27 15  08 21 11.081   -08 25 01.90  .78178 1.7175 152.8 21.1  447  10
2023 01 27 16  08 21 07.223   -08 25 22.77  .78186 1.7176 152.8 21.1  457  11
2023 01 27 17  08 21 03.366   -08 25 43.58  .78194 1.7176 152.8 21.1  467  11
2023 01 27 18  08 20 59.510   -08 26 04.33  .78201 1.7177 152.8 21.1  477  12
2023 01 27 19  08 20 55.656   -08 26 25.03  .78209 1.7178 152.8 21.1  488  13